[[{"header":{"parameterUnit":"m.s-1","parameterCategory":1,"la1":30.2991,"la2":30.254,"lo1":-89.0895,"lo2":-89.0444,"dx":0.0017,"dy":0.0017,"nx":28,"ny":28,"refTime":"2022-12-07T03:00:00:Z","depth":0,"parameterNumber":2,"parameterNumberName":"U-component_of_WINDS"},"data":[0,0,0,0,0,0,0,0,0,0,0,0,0,0,0,0,0,0,0,0,0,0,0,0,0,0,0,0,0,0,0,0,0,0,0,0,0,0,0,0,0,0,0,0,0,0,0,0,0,0,0,0,0,0,0,0,0,0,-0.1327,-0.1327,0,-0.1315,-0.1315,-0.1315,-0.1239,-0.1237,-0.1235,-0.1234,-0.1223,-0.1225,-0.1226,0,0,0,0,0,0,0,0,0,0,0,0,0,-0.1285,-0.1286,-0.1327,-0.1327,-0.1327,-0.1315,-0.1315,-0.1315,-0.1239,-0.1237,-0.1235,-0.1233,-0.1223,-0.1225,-0.1226,0,0,0,0,0,0,0,0,0,0,0,0,0,-0.1291,-0.1287,-0.1327,-0.1287,-0.1284,-0.1315,-0.1315,-0.1315,-0.124,-0.1237,-0.1234,-0.1232,-0.1222,-0.1224,-0.1226,-0.1295,0,0,-0.1233,-0.1234,0,0,0,0,0,0,0,0,-0.1291,-0.1293,-0.1293,-0.129,-0.1286,-0.1276,-0.1296,-0.1308,-0.1241,-0.1257,-0.1234,-0.123,-0.1243,-0.1243,-0.1247,-0.1295,-0.1294,-0.1233,-0.1235,-0.1236,-0.1236,0,0,0,0,0,0,0,-0.1291,-0.1293,-0.1322,-0.1294,-0.1289,-0.1271,-0.1269,-0.1298,-0.1266,-0.1255,-0.1249,-0.1249,-0.1241,-0.1245,-0.1246,-0.1294,-0.1233,-0.1235,-0.1236,-0.1237,-0.1397,-0.14,0,0,0,0,0,0,-0.1296,-0.1293,-0.1323,-0.1322,-0.1282,-0.1274,-0.1271,-0.1282,-0.1265,-0.126,-0.1251,-0.1246,-0.1243,-0.1244,-0.1246,-0.1325,-0.1236,-0.1238,-0.1239,-0.1394,-0.1398,-0.1401,0,0,0,0,0,0,-0.1295,-0.1299,-0.1323,-0.1306,-0.1308,-0.1277,-0.129,-0.1283,-0.1288,-0.1262,-0.1256,-0.1262,-0.1241,-0.1243,-0.1283,-0.1324,-0.1239,-0.124,-0.1391,-0.1396,-0.14,-0.1485,0,0,0,0,0,0,-0.1294,-0.1299,-0.1325,-0.1307,-0.1309,-0.1361,-0.1292,-0.1285,-0.1292,-0.1284,-0.1271,-0.1266,-0.1239,-0.1281,-0.1286,-0.1325,-0.1242,-0.1387,-0.1393,-0.1398,-0.1478,-0.1491,-0.1503,0,0,0,0,0,-0.1293,-0.135,-0.1326,-0.133,-0.134,-0.1363,-0.1364,-0.1331,-0.1295,-0.1321,-0.1304,-0.1266,-0.1318,-0.1285,-0.129,-0.1331,-0.1385,-0.1391,-0.1398,-0.1473,-0.1489,-0.1503,0,0,0,0,0,0,-0.1373,-0.1347,-0.1321,-0.1373,-0.1371,-0.135,-0.1382,-0.135,-0.1358,-0.1351,-0.131,-0.1307,-0.1354,-0.1347,-0.131,-0.1397,-0.1345,-0.1353,-0.14,-0.1415,-0.1428,-0.1429,-0.1244,0,0,0,0,0,-0.1397,-0.1418,-0.1393,-0.1442,-0.1442,-0.1412,-0.1421,-0.1396,-0.1392,-0.1391,-0.1377,-0.1376,-0.1392,-0.1403,-0.1416,-0.1476,-0.1473,-0.1507,-0.1519,-0.153,-0.1537,-0.1569,-0.1584,-0.1423,-0.1423,-0.1423,0,0,-0.1447,-0.1435,-0.145,-0.1458,-0.1453,-0.1476,-0.1412,-0.1439,-0.1455,-0.1395,-0.1433,-0.1423,-0.1418,-0.1469,-0.1491,-0.1464,-0.1581,-0.1538,-0.1547,-0.1548,-0.1577,-0.1592,-0.1606,-0.1427,-0.1427,-0.1426,0,0,-0.1549,-0.1541,-0.1581,-0.1578,-0.1571,-0.1551,-0.156,-0.1545,-0.1536,-0.1572,-0.1528,-0.1547,-0.1575,-0.1573,-0.1576,-0.1678,-0.1643,-0.1683,-0.1748,-0.1779,-0.1792,-0.1803,-0.1839,-0.1852,-0.169,-0.1691,-0.1691,0,-0.1611,-0.1643,-0.1606,-0.1635,-0.164,-0.1586,-0.1626,-0.1625,-0.1623,-0.1628,-0.1598,-0.1632,-0.1625,-0.1675,-0.17,-0.1704,-0.1714,-0.1684,-0.1793,-0.1803,-0.1813,-0.1847,-0.1861,-0.1696,-0.1695,-0.1694,-0.1694,0,-0.172,-0.1743,-0.1776,-0.1775,-0.1784,-0.1818,-0.1787,-0.18,-0.1774,-0.1757,-0.1795,-0.1785,-0.1795,-0.1805,-0.178,-0.1852,-0.1835,-0.18,-0.1747,-0.1834,-0.1865,-0.1878,-0.1703,-0.1701,-0.1699,-0.1698,0,0,-0.1873,-0.1851,-0.1864,-0.1862,-0.1851,-0.1868,-0.1901,-0.191,-0.1922,-0.1923,-0.1949,-0.1974,-0.1941,-0.1945,-0.1919,-0.1946,-0.2027,-0.1907,-0.1906,-0.193,-0.2105,-0.2133,-0.2148,-0.2004,-0.2007,-0.2008,-0.2106,0,-0.1971,-0.2024,-0.1992,-0.205,-0.2071,-0.202,-0.2048,-0.2045,-0.203,-0.2045,-0.2029,-0.2047,-0.2002,-0.2004,-0.2028,-0.2012,-0.2062,-0.2005,-0.2029,-0.203,-0.2032,-0.2165,-0.2193,-0.2286,-0.2118,-0.212,-0.2121,0,-0.2092,-0.2097,-0.2158,-0.2143,-0.215,-0.2176,-0.2182,-0.2197,-0.2192,-0.2179,-0.2183,-0.2151,-0.2182,-0.2129,-0.2172,-0.2134,-0.2142,-0.2135,-0.2138,-0.2139,-0.2082,-0.217,-0.2315,-0.2329,-0.214,-0.2139,-0.2138,0,-0.2198,-0.222,-0.2259,-0.226,-0.2243,-0.2262,-0.2256,-0.2248,-0.2256,-0.2261,-0.2266,-0.2275,-0.228,-0.2288,-0.2259,-0.2224,-0.2306,-0.2251,-0.2296,-0.2297,-0.2316,-0.2316,-0.2465,-0.2321,-0.2321,-0.2321,-0.232,0,-0.2311,-0.235,-0.2306,-0.2331,-0.2373,-0.2335,-0.2379,-0.2367,-0.236,-0.2382,-0.2338,-0.2359,-0.232,-0.2337,-0.2314,-0.2353,-0.2356,-0.2347,-0.234,-0.2351,-0.2352,-0.2356,-0.2349,-0.2324,-0.2323,-0.2323,-0.2322,0,-0.2436,-0.2408,-0.2448,-0.2428,-0.2424,-0.2456,-0.2439,-0.2461,-0.2443,-0.247,-0.2475,-0.2447,-0.2465,-0.2436,-0.2451,-0.2436,-0.249,-0.2474,-0.2492,-0.2487,-0.2534,-0.253,-0.2691,-0.2711,-0.2555,-0.2556,-0.2557,0,-0.251,-0.2539,-0.2522,-0.2533,-0.2529,-0.2547,-0.2554,-0.2518,-0.2528,-0.2524,-0.2547,-0.2561,-0.257,-0.2601,-0.2583,-0.2594,-0.2578,-0.2633,-0.2579,-0.2589,-0.2579,-0.2578,-0.2581,-0.2645,-0.2647,-0.2648,-0.2649,0,-0.2644,-0.2629,-0.2641,-0.2649,-0.2658,-0.2663,-0.2664,-0.2675,-0.2637,-0.2651,-0.2668,-0.2675,-0.269,-0.2705,-0.2711,-0.2705,-0.2672,-0.2666,-0.2678,-0.2689,-0.2698,-0.2694,-0.2522,-0.2663,-0.2662,-0.2661,-0.266,-0.2659,-0.2746,-0.2769,-0.2761,-0.2776,-0.2773,-0.2775,-0.2794,-0.2778,-0.2792,-0.2801,-0.2779,-0.2802,-0.2796,-0.2801,-0.2799,-0.2817,-0.2792,-0.2808,-0.2812,-0.2817,-0.2825,-0.2695,-0.2818,-0.2817,-0.2817,-0.2816,-0.2816,0,-0.2878,-0.287,-0.2884,-0.2887,-0.2899,-0.2865,-0.2865,-0.2877,-0.2897,-0.2894,-0.2904,-0.2925,-0.2939,-0.2921,-0.2932,-0.295,-0.2935,-0.2954,-0.2952,-0.2952,-0.2846,-0.2835,-0.2966,-0.2966,-0.2966,-0.2966,-0.2966,-0.2966,-0.2949,-0.2986,-0.297,-0.3006,-0.2997,-0.3019,-0.3022,-0.3024,-0.3021,-0.3045,-0.3057,-0.3045,-0.3036,-0.3046,-0.3057,-0.3052,-0.3058,-0.3083,-0.3072,-0.2974,-0.2959,-0.2945,-0.2935,-0.3085,-0.3085,-0.3177,-0.3178,-0.3178]},{"header":{"parameterUnit":"m.s-1","parameterCategory":1,"la1":30.2991,"la2":30.254,"lo1":-89.0895,"lo2":-89.0444,"dx":0.0017,"dy":0.0017,"nx":28,"ny":28,"refTime":"2022-12-07T03:00:00:Z","depth":0,"parameterNumber":3,"parameterNumberName":"V-component_of_WINDS"},"data":[0,0,0,0,0,0,0,0,0,0,0,0,0,0,0,0,0,0,0,0,0,0,0,0,0,0,0,0,0,0,0,0,0,0,0,0,0,0,0,0,0,0,0,0,0,0,0,0,0,0,0,0,0,0,0,0,0,0,0.2576,0.2576,0,0.2487,0.2486,0.2485,0.2487,0.2488,0.2489,0.249,0.2395,0.2391,0.2387,0,0,0,0,0,0,0,0,0,0,0,0,0,0.2744,0.2741,0.2577,0.2575,0.2574,0.2488,0.2486,0.2485,0.2486,0.2488,0.2489,0.2491,0.2396,0.2391,0.2387,0,0,0,0,0,0,0,0,0,0,0,0,0,0.2665,0.274,0.2577,0.2565,0.2563,0.2488,0.2486,0.2485,0.2486,0.2488,0.249,0.2491,0.2397,0.2392,0.2386,0.2317,0,0,0.237,0.2367,0,0,0,0,0,0,0,0,0.2669,0.2658,0.2567,0.2565,0.2563,0.25,0.251,0.2428,0.2486,0.2515,0.249,0.2492,0.2428,0.242,0.2399,0.2312,0.2308,0.2369,0.2366,0.2363,0.2362,0,0,0,0,0,0,0,0.2675,0.2662,0.2541,0.2566,0.2563,0.2562,0.2553,0.2495,0.2462,0.2513,0.2512,0.2502,0.2427,0.2404,0.2397,0.2307,0.2369,0.2364,0.2361,0.2359,0.2157,0.2155,0,0,0,0,0,0,0.2683,0.2667,0.2544,0.2539,0.2622,0.2558,0.2548,0.2518,0.2463,0.2456,0.2501,0.2503,0.2413,0.2403,0.2394,0.2308,0.2363,0.2358,0.2355,0.2159,0.2157,0.2155,0,0,0,0,0,0,0.2687,0.2672,0.2548,0.2603,0.2587,0.2553,0.252,0.2516,0.2493,0.2454,0.2448,0.2484,0.2414,0.2401,0.2336,0.2304,0.2356,0.2351,0.2162,0.2159,0.2156,0.2136,0,0,0,0,0,0,0.2692,0.2674,0.2647,0.2602,0.2584,0.2492,0.2518,0.2513,0.2484,0.2486,0.2437,0.243,0.2414,0.2344,0.233,0.2298,0.2347,0.2164,0.216,0.2157,0.2139,0.2133,0.2127,0,0,0,0,0,0.2698,0.2644,0.2646,0.2631,0.2551,0.2491,0.248,0.2464,0.2482,0.2455,0.243,0.2432,0.2311,0.2337,0.2322,0.2287,0.2166,0.2161,0.2157,0.2142,0.2134,0.2127,0,0,0,0,0,0,0.2685,0.2638,0.264,0.257,0.2535,0.2491,0.2456,0.2456,0.2414,0.2417,0.2398,0.2386,0.2321,0.2298,0.2329,0.2217,0.224,0.2232,0.2234,0.2226,0.222,0.2226,0.2342,0,0,0,0,0,0.2675,0.2631,0.2592,0.2535,0.2517,0.249,0.2463,0.2454,0.2416,0.24,0.237,0.2332,0.2285,0.2254,0.2209,0.2136,0.2125,0.2105,0.2099,0.2094,0.2087,0.2046,0.2036,0.2139,0.2139,0.2139,0,0,0.2652,0.2621,0.2594,0.2532,0.2503,0.2457,0.2477,0.2428,0.2393,0.2392,0.2329,0.2306,0.2261,0.2192,0.216,0.217,0.2056,0.2088,0.2084,0.208,0.204,0.203,0.2022,0.2136,0.2137,0.2137,0,0,0.2587,0.256,0.2509,0.2481,0.2437,0.242,0.2408,0.2364,0.2349,0.2286,0.2284,0.2242,0.2162,0.2131,0.2104,0.2028,0.2028,0.2014,0.1981,0.1942,0.1934,0.1926,0.1898,0.1889,0.2008,0.2007,0.2007,0,0.2564,0.2496,0.2483,0.2433,0.2405,0.2405,0.2352,0.2325,0.2268,0.2248,0.2262,0.2162,0.2132,0.2055,0.2036,0.2015,0.2,0.2019,0.1936,0.1929,0.1922,0.1895,0.1884,0.2006,0.2006,0.2006,0.2006,0,0.247,0.2423,0.2387,0.2334,0.2302,0.2251,0.2229,0.2198,0.2193,0.2173,0.2108,0.2073,0.202,0.2002,0.1995,0.1923,0.1931,0.1941,0.1964,0.191,0.1885,0.1875,0.2004,0.2004,0.2005,0.2005,0,0,0.2393,0.2335,0.2322,0.2298,0.2251,0.2213,0.2163,0.2113,0.2086,0.2048,0.2004,0.1937,0.1945,0.1915,0.1905,0.187,0.1812,0.1884,0.1882,0.1871,0.173,0.1723,0.1711,0.1812,0.181,0.1809,0.1733,0,0.2323,0.2234,0.2221,0.2142,0.2098,0.2097,0.2052,0.2018,0.1999,0.1958,0.1936,0.1888,0.1904,0.1886,0.1851,0.1826,0.1783,0.1832,0.177,0.1768,0.178,0.1698,0.169,0.162,0.1723,0.1722,0.1721,0,0.2228,0.2189,0.2106,0.2066,0.2046,0.2007,0.196,0.1922,0.1882,0.1871,0.1838,0.1832,0.1778,0.1805,0.1729,0.1763,0.1737,0.172,0.1717,0.171,0.174,0.1687,0.1598,0.1587,0.1705,0.1706,0.1707,0,0.218,0.2106,0.2047,0.2027,0.1978,0.195,0.1928,0.1891,0.1862,0.1821,0.1802,0.1754,0.1728,0.1691,0.1672,0.1693,0.1598,0.1623,0.1585,0.1586,0.1564,0.1565,0.1468,0.1549,0.1549,0.1549,0.155,0,0.2102,0.2051,0.2025,0.1989,0.1931,0.1916,0.186,0.1838,0.1805,0.1764,0.176,0.172,0.1698,0.1655,0.164,0.158,0.1568,0.1556,0.1552,0.1556,0.1557,0.1538,0.1541,0.1547,0.1547,0.1548,0.1548,0,0.2038,0.2019,0.1954,0.1914,0.1902,0.1862,0.1827,0.179,0.1772,0.172,0.1706,0.1677,0.1626,0.1604,0.1541,0.1531,0.1462,0.1462,0.1475,0.1474,0.1437,0.144,0.1323,0.1306,0.1399,0.1398,0.1398,0,0.1989,0.195,0.1906,0.1879,0.1857,0.1813,0.1784,0.1767,0.1737,0.169,0.1659,0.1609,0.1568,0.1487,0.1459,0.141,0.1409,0.1371,0.1401,0.1406,0.1407,0.1409,0.1405,0.1365,0.1364,0.1363,0.1363,0,0.1904,0.1897,0.1856,0.1811,0.1777,0.1741,0.1705,0.1683,0.1661,0.1627,0.1576,0.1544,0.1481,0.1431,0.1381,0.1357,0.1355,0.1354,0.1342,0.1345,0.1354,0.1348,0.1459,0.1356,0.1357,0.1357,0.1358,0.1358,0.1845,0.1811,0.1775,0.1729,0.1701,0.1668,0.1632,0.161,0.1568,0.1516,0.1509,0.1455,0.1416,0.135,0.1324,0.128,0.1289,0.1273,0.1268,0.1264,0.1262,0.1362,0.1271,0.1271,0.1271,0.1271,0.1271,0,0.1759,0.1737,0.1695,0.1646,0.161,0.1614,0.1575,0.1544,0.1497,0.1462,0.1422,0.1363,0.1315,0.1284,0.1234,0.1205,0.1203,0.1193,0.1194,0.1188,0.1257,0.1271,0.1195,0.1195,0.1195,0.1195,0.1195,0.1195,0.1711,0.1652,0.1641,0.1568,0.1545,0.1493,0.147,0.1439,0.1411,0.1347,0.1307,0.1288,0.1254,0.1202,0.1157,0.1149,0.1131,0.1119,0.1112,0.1176,0.1184,0.1191,0.1205,0.1116,0.1116,0.1047,0.1046,0.1046]}]]